Regional Weather Roundup
Issued by NWS

Home | Current Version | Previous Version | Graphics & Text | Print | Product List | Glossary On
Versions: 1 2 3 4 5 6 7 8 9 10 11 12 13 14 15 16 17 18 19 20 21 22 23 24 25 26 27 28 29 30 31 32 33 34 35 36 37 38 39 40 41 42 43 44 45 46 47 48 49 50
102
ASUS43 KFSD 200710
RWRSD

WEATHER ROUNDUP FOR SOUTH DAKOTA
NATIONAL WEATHER SERVICE SIOUX FALLS SD
200 AM CDT THU JUL 20 2017

NOTE: "FAIR" INDICATES FEW OR NO CLOUDS BELOW 12,000 FEET WITH NO
SIGNIFICANT WEATHER AND/OR OBSTRUCTIONS TO VISIBILITY.


SDZ001>005-009-010-012>017-200800-
NORTHWEST AND NORTH CENTRAL SOUTH DAKOTA

CITY           SKY/WX    TMP DP  RH WIND       PRES   REMARKS
BUFFALO          N/A     67  58  72 S7        30.00F
FAITH            N/A     71  65  81 E8        30.05S
MOBRIDGE       PTCLDY    69  65  86 CALM      29.98F
$$

SDZ012>016-024>037-041>051-057-063-072>074-200800-
SOUTHWEST AND SOUTH CENTRAL SOUTH DAKOTA

CITY           SKY/WX    TMP DP  RH WIND       PRES   REMARKS
RAPID CTY ARPT CLOUDY    71  60  68 NE8       30.09R
PIERRE         CLEAR     74  70  87 NE9       29.96F
CUSTER         CLOUDY    67  53  61 CALM      30.26R
ELLSWORTH AFB  CLOUDY    74  63  68 E6        30.08F
PHILIP         CLOUDY    74  68  81 NE8       30.01R
PINE RIDGE     CLOUDY    74  68  81 MISG      30.12R
SPEARFISH      FAIR      70  57  64 SE8       30.14F
WINNER         FAIR      75  66  73 S7        30.00R
$$

SDZ004>011-016>023-039-040-200800-
NORTHEAST SOUTH DAKOTA

CITY           SKY/WX    TMP DP  RH WIND       PRES   REMARKS
ABERDEEN       CLEAR     67  67 100 N5        29.96F
WATERTOWN      PTCLDY    67  67 100 N3        29.97S
BROOKINGS      CLOUDY    71  69  93 NE6       29.96S
SISSETON         N/A     64  63  96 S3        29.95S
$$

SDZ017-020-022-023-036>040-048>070-200800-
SOUTHEAST SOUTH DAKOTA

CITY           SKY/WX    TMP DP  RH WIND       PRES   REMARKS
SIOUX FALLS    CLOUDY    72  71  97 N8        29.94R
HURON          PTCLDY    73  71  93 N7        29.95R
CHAMBERLAIN    CLOUDY    76  74  92 NE7       29.98R
MITCHELL       CLOUDY    75  74  96 N7        29.96R
YANKTON        CLOUDY    79  67  66 NW13      29.91S
$$

ABBREVIATIONS USED IN REMARKS
   TC - TEMPERATURE IN CELSIUS
  WCI - WIND CHILL INDEX
   HX - HEAT INDEX
  VSB - VISIBILITY





USA.gov is the U.S. government's official web portal to all federal, state and local government web resources and services.